Regional Weather Roundup
Issued by NWS Spokane, WA

Home | Current Version | Previous Version | Text Only | Print | Product List | Glossary On
Versions: 1 2 3 4 5 6 7 8 9 10 11 12 13 14 15 16 17 18 19 20 21 22 23 24 25 26 27 28 29 30 31 32 33 34 35 36 37 38 39 40 41 42 43 44 45 46 47 48 49 50
000
NZUS01 KOTX 290300
RWROTX
EASTERN WASHINGTON/NORTHERN IDAHO ROUNDUP
NATIONAL WEATHER SERVICE, SPOKANE WA
800 PM PDT TUE JUL 28 2015

Note: "fair" indicated few or no clouds below 12,000 feet with no
significant weather and/or obstructions to visibility.

...NORTHEAST WASHINGTON AND NORTHERN IDAHO PANHANDLE...

CITY           SKY/WX    TMP DP  RH WIND       PRES   REMARKS
SPOKANE INTL   PTCLDY    76  36  23 S7        30.17R
SPOKANE DOWNTO CLEAR     76  39  26 W3        30.15S
COEUR D ALENE  PTCLDY    73  37  27 S7        30.16S
DEER PARK      CLEAR     75  37  25 S8        30.16R
SANDPOINT      CLEAR     68  46  45 CALM      30.16R

...SOUTHEAST WASHINGTON AND SOUTHERN IDAHO PANHANDLE...

CITY           SKY/WX    TMP DP  RH WIND       PRES   REMARKS
WALLA WALLA    CLEAR     81  37  20 NW8       30.11S
PULLMAN/MOSCOW CLEAR     72  33  24 N5        30.21R
LOWELL           N/A     64  51  62 CALM      30.17R

...COLUMBIA BASIN...

CITY           SKY/WX    TMP DP  RH WIND       PRES   REMARKS
EPHRATA        CLEAR     79  34  19 S7        30.12S
MOSES LAKE     CLEAR     78  36  21 SE7       30.13S
TRI CITIES     CLEAR     82  41  23 E6        30.09S
HERMISTON      CLEAR     81  37  20 CALM      30.09S
PENDLETON      CLEAR     76  35  22 NW7       30.13R

...EAST SLOPES CASCADES...

CITY           SKY/WX    TMP DP  RH WIND       PRES   REMARKS
THE DALLES     CLEAR     87  39  18 CALM      30.05S
YAKIMA         PTCLDY    81  40  23 S7        30.12R
ELLENSBURG     CLEAR     80  45  28 NW14      30.13S
WENATCHEE      CLEAR     79  40  24 E9        30.10S
OMAK           PTCLDY    82  37  20 SE8       30.08R

...SOUTHERN BRITISH COLUMBIA...

CITY           SKY/WX    TMP DP  RH WIND       PRES   REMARKS

...WESTERN MONTANA...

CITY           SKY/WX    TMP DP  RH WIND       PRES   REMARKS
MISSOULA       CLEAR     65  42  43 NW9       30.22R

...NEIGHBORING CITIES...

CITY           SKY/WX    TMP DP  RH WIND       PRES   REMARKS
SEATTLE        PTCLDY    78  48  34 N10       30.20R



USA.gov is the U.S. government's official web portal to all federal, state and local government web resources and services.